Eagle River, WI

5:35 AM CDT on May 28, 2017 (GMT -0500)
Eagle River Union

Weather History for KEGV - July, 2013

Change the Weather History Date:

Monday, July 1, 2013

  Actual Average Record
Temperature  
Mean Temperature 62 °F -  
Max Temperature 77 °F 74 °F 91 °F (2002)
Min Temperature 46 °F 53 °F 36 °F (2015)
Degree Days  
Heating Degree Days 4    
Growing Degree Days 12 (Base 50)    
Moisture  
Dew Point 48 °F    
Average Humidity 68    
Maximum Humidity 100    
Minimum Humidity 31    
Precipitation  
Precipitation 0.00 in - - ()
Sea Level Pressure  
Sea Level Pressure 30.18 in    
Wind  
Wind Speed 3 mph (NNE)    
Max Wind Speed 13 mph    
Max Gust Speed 18 mph    
Visibility 10 miles    
Events      
Averages and records for this station are not official NWS values.
T = Trace of Precipitation, MM = Missing Value Source: NWS Daily Summary

Daily Weather History Graph

Daily Weather History Graph

Search for Another Location

Airport or City:

Trip Planner

Search our weather history database for the weather conditions in past years. The results will help you decide how hot, cold, wet, or windy it might be!

Date:

Astronomy

Jul. 01, 2013 Rise Set
Actual Time 5:10 AM CDT 8:51 PM CDT
Civil Twilight 4:32 AM CDT 9:29 PM CDT
Nautical Twilight 3:41 AM CDT 10:20 PM CDT
Astronomical Twilight 2:31 AM CDT 11:29 PM CDT
Moon 12:53 AM CDT (7/1) 2:55 PM CDT (7/1)
Length of Visible Light 16h 56m
Length of Day
15h 40m
Waning Crescent, 35% of the Moon is Illuminated
Jul 1
Waning Crescent
Jul 8
New
Jul 15
First Quarter
Jul 22
Full
Jul 29
Last Quarter

Hourly Weather History & Observations

Time (CDT) Temp. Dew Point Humidity Pressure Visibility Wind Dir Wind Speed Gust Speed Precip Events Conditions
12:15 AM 52.2 °F 51.4 °F 97% 30.14 in 10.0 mi Calm Calm - N/A   Clear
12:35 AM 50.7 °F 50.2 °F 98% 30.14 in 10.0 mi Calm Calm - N/A   Clear
12:55 AM 50.9 °F 50.2 °F 97% 30.15 in 10.0 mi Calm Calm - N/A   Clear
1:15 AM 50.7 °F 50.4 °F 99% 30.15 in 10.0 mi Calm Calm - N/A   Clear
1:35 AM 50.5 °F 50.5 °F 100% 30.15 in 10.0 mi Calm Calm - N/A   Clear
1:55 AM 49.1 °F 49.1 °F 100% 30.15 in 10.0 mi Calm Calm - N/A   Clear
2:15 AM 49.5 °F 49.3 °F 99% 30.15 in 10.0 mi Calm Calm - N/A   Clear
2:35 AM 49.1 °F 48.7 °F 99% 30.15 in 7.0 mi Calm Calm - N/A   Clear
2:55 AM 49.1 °F 49.1 °F 100% 30.15 in 10.0 mi Calm Calm - N/A   Clear
3:15 AM 47.5 °F 47.5 °F 100% 30.16 in 7.0 mi Calm Calm - N/A   Clear
3:35 AM 47.7 °F 47.7 °F 100% 30.16 in 7.0 mi Calm Calm - N/A   Clear
3:55 AM 47.7 °F 47.7 °F 100% 30.16 in 4.0 mi Calm Calm - N/A   Clear
4:15 AM 47.7 °F 47.7 °F 100% 30.16 in 10.0 mi Calm Calm - N/A   Clear
4:35 AM 47.7 °F 47.7 °F 100% 30.17 in 10.0 mi Calm Calm - N/A   Clear
4:55 AM 47.5 °F 47.5 °F 100% 30.17 in 7.0 mi Calm Calm - N/A   Clear
5:15 AM 46.8 °F 46.8 °F 100% 30.18 in 7.0 mi Calm Calm - N/A   Clear
5:35 AM 47.3 °F 47.3 °F 100% 30.18 in 10.0 mi Calm Calm - N/A   Clear
5:55 AM 47.7 °F 47.7 °F 100% 30.19 in 10.0 mi Calm Calm - N/A   Clear
6:15 AM 48.4 °F 48.2 °F 99% 30.20 in 10.0 mi Calm Calm - N/A   Clear
6:35 AM 51.3 °F 51.1 °F 99% 30.20 in 10.0 mi Calm Calm - N/A   Clear
6:55 AM 55.2 °F 50.0 °F 83% 30.20 in 10.0 mi Calm Calm - N/A   Clear
7:15 AM 58.1 °F 47.8 °F 69% 30.20 in 10.0 mi Calm Calm - N/A   Clear
7:55 AM 63.3 °F 49.8 °F 61% 30.20 in 10.0 mi Calm Calm - N/A   Clear
8:15 AM 65.7 °F 49.5 °F 56% 30.20 in 10.0 mi NE 3.5 mph - N/A   Clear
8:35 AM 68.2 °F 48.9 °F 50% 30.21 in 10.0 mi NNE 4.6 mph - N/A   Clear
8:55 AM 70.3 °F 48.6 °F 46% 30.20 in 10.0 mi NNE 4.6 mph - N/A   Clear
9:15 AM 71.6 °F 46.8 °F 41% 30.20 in 10.0 mi NNE 6.9 mph - N/A   Clear
9:35 AM 72.7 °F 47.5 °F 41% 30.20 in 10.0 mi NNE 5.8 mph - N/A   Clear
9:55 AM 73.9 °F 48.2 °F 40% 30.20 in 10.0 mi NNE 11.5 mph - N/A   Clear
10:15 AM 74.5 °F 47.8 °F 39% 30.20 in 10.0 mi North 10.4 mph - N/A   Clear
10:35 AM 75.0 °F 47.1 °F 37% 30.20 in 10.0 mi North 9.2 mph - N/A   Clear
11:55 AM 75.9 °F 46.0 °F 35% 30.20 in 10.0 mi North 9.2 mph 18.4 mph N/A   Scattered Clouds
12:15 PM 75.9 °F 46.0 °F 35% 30.20 in 10.0 mi North 12.7 mph 16.1 mph N/A   Mostly Cloudy
12:35 PM 75.9 °F 45.5 °F 34% 30.20 in 10.0 mi ENE 9.2 mph - N/A   Mostly Cloudy
12:55 PM 76.6 °F 45.3 °F 33% 30.20 in 10.0 mi ENE 6.9 mph - N/A   Scattered Clouds
1:55 PM 77.0 °F 46.4 °F 34% 30.19 in 10.0 mi NNE 10.4 mph 17.3 mph N/A   Scattered Clouds
2:15 PM 77.2 °F 46.6 °F 34% 30.19 in 10.0 mi NE 9.2 mph 17.3 mph N/A   Scattered Clouds
3:15 PM 77.0 °F 44.8 °F 32% 30.18 in 10.0 mi North 10.4 mph - N/A   Scattered Clouds
3:35 PM 77.4 °F 44.8 °F 31% 30.18 in 10.0 mi North 8.1 mph - N/A   Scattered Clouds
3:55 PM 77.4 °F 45.5 °F 32% 30.18 in 10.0 mi North 9.2 mph - N/A   Scattered Clouds
4:55 PM 76.3 °F 46.0 °F 34% 30.18 in 10.0 mi NNE 11.5 mph - N/A   Scattered Clouds
5:55 PM 74.5 °F 45.9 °F 36% 30.18 in 10.0 mi North 11.5 mph - N/A   Clear
6:15 PM 74.1 °F 46.9 °F 38% 30.18 in 10.0 mi NNE 9.2 mph - N/A   Clear
7:15 PM 70.9 °F 47.1 °F 43% 30.19 in 10.0 mi NNE 10.4 mph - N/A   Clear
8:15 PM 66.9 °F 47.3 °F 49% 30.20 in 10.0 mi NNE 6.9 mph - N/A   Clear
9:35 PM 59.9 °F 47.5 °F 64% 30.21 in 10.0 mi NE 4.6 mph - N/A   Clear
9:55 PM 59.5 °F 46.9 °F 63% 30.21 in 10.0 mi NNE 3.5 mph - N/A   Clear
10:15 PM 58.5 °F 46.9 °F 66% 30.21 in 10.0 mi NE 3.5 mph - N/A   Clear
10:35 PM 57.6 °F 44.8 °F 62% 30.20 in 10.0 mi NE 3.5 mph - N/A   Clear
11:15 PM 54.7 °F 45.0 °F 70% 30.21 in 10.0 mi NNE 3.5 mph - N/A   Clear
11:35 PM 52.9 °F 44.4 °F 73% 30.21 in 10.0 mi Calm Calm - N/A   Clear
11:55 PM 53.2 °F 44.1 °F 71% 30.21 in 10.0 mi NNE 4.6 mph - N/A   Clear